History Data

Date (GMT-7:00) CPM ACPM uSv/h Latitude Longitude Altitude CO CO2 TVOC HCHO Air Pressure Temperature Humidity Type
2025-10-27 19:52:10 15 19.10 0.075000 41.649648 41.62752893 0 0 0 0 0 0 0 0 STD5.60
2025-10-27 19:47:08 17 18.70 0.085000 41.649648 41.62752893 0 0 0 0 0 0 0 0 STD5.60
2025-10-27 19:42:05 25 18.90 0.125000 41.649648 41.62752893 0 0 0 0 0 0 0 0 STD5.60
2025-10-27 19:37:03 21 18.60 0.105000 41.649648 41.62752893 0 0 0 0 0 0 0 0 STD5.60
2025-10-27 19:32:00 14 17.20 0.070000 41.649648 41.62752893 0 0 0 0 0 0 0 0 STD5.60
2025-10-27 19:26:58 13 15.10 0.065000 41.649648 41.62752893 0 0 0 0 0 0 0 0 STD5.60
2025-10-27 19:21:56 18 16.60 0.090000 41.649648 41.62752893 0 0 0 0 0 0 0 0 STD5.60
2025-10-27 19:16:52 19 20.90 0.095000 41.649648 41.62752893 0 0 0 0 0 0 0 0 STD5.60
2025-10-27 19:11:50 25 18.50 0.125000 41.649648 41.62752893 0 0 0 0 0 0 0 0 STD5.60
2025-10-27 19:06:48 13 17.90 0.065000 41.649648 41.62752893 0 0 0 0 0 0 0 0 STD5.60
2025-10-27 19:01:45 13 20.70 0.065000 41.649648 41.62752893 0 0 0 0 0 0 0 0 STD5.60
2025-10-27 18:56:43 19 18.60 0.095000 41.649648 41.62752893 0 0 0 0 0 0 0 0 STD5.60
2025-10-27 18:51:41 23 17.30 0.115000 41.649648 41.62752893 0 0 0 0 0 0 0 0 STD5.60
2025-10-27 18:46:39 13 18.70 0.065000 41.649648 41.62752893 0 0 0 0 0 0 0 0 STD5.60
2025-10-27 18:41:37 23 18.80 0.115000 41.649648 41.62752893 0 0 0 0 0 0 0 0 STD5.60
2025-10-27 18:36:35 18 19.00 0.090000 41.649648 41.62752893 0 0 0 0 0 0 0 0 STD5.60
2025-10-27 18:31:33 27 18.20 0.135000 41.649648 41.62752893 0 0 0 0 0 0 0 0 STD5.60
2025-10-27 18:26:31 16 17.50 0.080000 41.649648 41.62752893 0 0 0 0 0 0 0 0 STD5.60
2025-10-27 18:21:28 18 18.20 0.090000 41.649648 41.62752893 0 0 0 0 0 0 0 0 STD5.60
2025-10-27 18:16:24 21 18.50 0.105000 41.649648 41.62752893 0 0 0 0 0 0 0 0 STD5.60
2025-10-27 18:11:22 17 18.40 0.085000 41.649648 41.62752893 0 0 0 0 0 0 0 0 STD5.60
2025-10-27 18:06:20 15 18.10 0.075000 41.649648 41.62752893 0 0 0 0 0 0 0 0 STD5.60
2025-10-27 18:01:17 21 18.10 0.105000 41.649648 41.62752893 0 0 0 0 0 0 0 0 STD5.60
2025-10-27 17:56:15 18 17.00 0.090000 41.649648 41.62752893 0 0 0 0 0 0 0 0 STD5.60
2025-10-27 17:51:14 16 16.20 0.080000 41.649648 41.62752893 0 0 0 0 0 0 0 0 STD5.60
2025-10-27 17:46:11 21 18.20 0.105000 41.649648 41.62752893 0 0 0 0 0 0 0 0 STD5.60
2025-10-27 17:41:09 13 16.70 0.065000 41.649648 41.62752893 0 0 0 0 0 0 0 0 STD5.60
2025-10-27 17:36:06 17 17.00 0.085000 41.649648 41.62752893 0 0 0 0 0 0 0 0 STD5.60
2025-10-27 17:31:04 22 18.80 0.110000 41.649648 41.62752893 0 0 0 0 0 0 0 0 STD5.60
2025-10-27 17:26:02 21 16.70 0.105000 41.649648 41.62752893 0 0 0 0 0 0 0 0 STD5.60
2025-10-27 17:21:00 13 16.80 0.065000 41.649648 41.62752893 0 0 0 0 0 0 0 0 STD5.60
2025-10-27 17:15:56 16 17.00 0.080000 41.649648 41.62752893 0 0 0 0 0 0 0 0 STD5.60
2025-10-27 17:10:54 21 19.30 0.105000 41.649648 41.62752893 0 0 0 0 0 0 0 0 STD5.60
2025-10-27 17:05:52 28 20.60 0.140000 41.649648 41.62752893 0 0 0 0 0 0 0 0 STD5.60
2025-10-27 17:00:50 20 20.60 0.100000 41.649648 41.62752893 0 0 0 0 0 0 0 0 STD5.60
2025-10-27 16:55:48 19 20.10 0.095000 41.649648 41.62752893 0 0 0 0 0 0 0 0 STD5.60
2025-10-27 16:50:45 16 18.30 0.080000 41.649648 41.62752893 0 0 0 0 0 0 0 0 STD5.60
2025-10-27 16:45:43 16 17.80 0.080000 41.649648 41.62752893 0 0 0 0 0 0 0 0 STD5.60
2025-10-27 16:40:41 16 17.10 0.080000 41.649648 41.62752893 0 0 0 0 0 0 0 0 STD5.60
2025-10-27 16:35:39 20 18.00 0.100000 41.649648 41.62752893 0 0 0 0 0 0 0 0 STD5.60
2025-10-27 16:30:37 16 17.40 0.080000 41.649648 41.62752893 0 0 0 0 0 0 0 0 STD5.60
2025-10-27 16:25:35 10 16.30 0.050000 41.649648 41.62752893 0 0 0 0 0 0 0 0 STD5.60
2025-10-27 16:20:33 17 18.10 0.085000 41.649648 41.62752893 0 0 0 0 0 0 0 0 STD5.60
2025-10-27 16:15:27 15 17.80 0.075000 41.649648 41.62752893 0 0 0 0 0 0 0 0 STD5.60
2025-10-27 16:10:26 16 17.20 0.080000 41.649648 41.62752893 0 0 0 0 0 0 0 0 STD5.60
2025-10-27 16:05:23 20 18.20 0.100000 41.649648 41.62752893 0 0 0 0 0 0 0 0 STD5.60
2025-10-27 16:00:20 17 17.80 0.085000 41.649648 41.62752893 0 0 0 0 0 0 0 0 STD5.60
2025-10-27 15:55:18 12 17.50 0.060000 41.649648 41.62752893 0 0 0 0 0 0 0 0 STD5.60
2025-10-27 15:50:16 20 18.20 0.100000 41.649648 41.62752893 0 0 0 0 0 0 0 0 STD5.60
2025-10-27 15:45:14 24 17.80 0.120000 41.649648 41.62752893 0 0 0 0 0 0 0 0 STD5.60
2025-10-27 15:40:12 18 16.10 0.090000 41.649648 41.62752893 0 0 0 0 0 0 0 0 STD5.60
2025-10-27 15:35:10 14 15.50 0.070000 41.649648 41.62752893 0 0 0 0 0 0 0 0 STD5.60
2025-10-27 15:30:07 12 16.80 0.060000 41.649648 41.62752893 0 0 0 0 0 0 0 0 STD5.60
2025-10-27 15:25:06 28 15.80 0.140000 41.649648 41.62752893 0 0 0 0 0 0 0 0 STD5.60
2025-10-27 15:20:03 15 15.90 0.075000 41.649648 41.62752893 0 0 0 0 0 0 0 0 STD5.60
2025-10-27 15:14:59 18 17.00 0.090000 41.649648 41.62752893 0 0 0 0 0 0 0 0 STD5.60
2025-10-27 15:09:57 13 18.60 0.065000 41.649648 41.62752893 0 0 0 0 0 0 0 0 STD5.60
2025-10-27 15:04:54 27 17.80 0.135000 41.649648 41.62752893 0 0 0 0 0 0 0 0 STD5.60
2025-10-27 14:59:52 17 15.40 0.085000 41.649648 41.62752893 0 0 0 0 0 0 0 0 STD5.60
2025-10-27 14:54:50 19 17.00 0.095000 41.649648 41.62752893 0 0 0 0 0 0 0 0 STD5.60
2025-10-27 14:49:48 14 18.60 0.070000 41.649648 41.62752893 0 0 0 0 0 0 0 0 STD5.60
2025-10-27 14:44:46 26 19.40 0.130000 41.649648 41.62752893 0 0 0 0 0 0 0 0 STD5.60
2025-10-27 14:39:44 16 19.50 0.080000 41.649648 41.62752893 0 0 0 0 0 0 0 0 STD5.60
2025-10-27 14:34:42 21 19.20 0.105000 41.649648 41.62752893 0 0 0 0 0 0 0 0 STD5.60
2025-10-27 14:29:41 18 17.30 0.090000 41.649648 41.62752893 0 0 0 0 0 0 0 0 STD5.60
2025-10-27 14:24:37 20 16.20 0.100000 41.649648 41.62752893 0 0 0 0 0 0 0 0 STD5.60
2025-10-27 14:19:35 12 16.90 0.060000 41.649648 41.62752893 0 0 0 0 0 0 0 0 STD5.60
2025-10-27 14:14:30 18 17.40 0.090000 41.649648 41.62752893 0 0 0 0 0 0 0 0 STD5.60
2025-10-27 14:09:30 23 18.10 0.115000 41.649648 41.62752893 0 0 0 0 0 0 0 0 STD5.60
2025-10-27 14:04:26 22 17.90 0.110000 41.649648 41.62752893 0 0 0 0 0 0 0 0 STD5.60
2025-10-27 13:59:24 22 17.70 0.110000 41.649648 41.62752893 0 0 0 0 0 0 0 0 STD5.60
2025-10-27 13:54:22 17 16.90 0.085000 41.649648 41.62752893 0 0 0 0 0 0 0 0 STD5.60
2025-10-27 13:49:20 16 16.60 0.080000 41.649648 41.62752893 0 0 0 0 0 0 0 0 STD5.60
2025-10-27 13:44:17 20 19.10 0.100000 41.649648 41.62752893 0 0 0 0 0 0 0 0 STD5.60
2025-10-27 13:39:16 26 18.30 0.130000 41.649648 41.62752893 0 0 0 0 0 0 0 0 STD5.60
2025-10-27 13:34:13 14 17.10 0.070000 41.649648 41.62752893 0 0 0 0 0 0 0 0 STD5.60
2025-10-27 13:29:13 12 17.50 0.060000 41.649648 41.62752893 0 0 0 0 0 0 0 0 STD5.60
2025-10-27 13:24:09 20 18.20 0.100000 41.649648 41.62752893 0 0 0 0 0 0 0 0 STD5.60
2025-10-27 13:19:07 17 18.40 0.085000 41.649648 41.62752893 0 0 0 0 0 0 0 0 STD5.60
2025-10-27 13:14:03 16 16.70 0.080000 41.649648 41.62752893 0 0 0 0 0 0 0 0 STD5.60
2025-10-27 13:09:01 22 17.50 0.110000 41.649648 41.62752893 0 0 0 0 0 0 0 0 STD5.60
2025-10-27 13:04:00 22 19.20 0.110000 41.649648 41.62752893 0 0 0 0 0 0 0 0 STD5.60
2025-10-27 12:58:57 19 16.90 0.095000 41.649648 41.62752893 0 0 0 0 0 0 0 0 STD5.60
2025-10-27 12:53:55 16 16.60 0.080000 41.649648 41.62752893 0 0 0 0 0 0 0 0 STD5.60
2025-10-27 12:48:52 20 18.10 0.100000 41.649648 41.62752893 0 0 0 0 0 0 0 0 STD5.60
2025-10-27 12:43:50 18 17.30 0.090000 41.649648 41.62752893 0 0 0 0 0 0 0 0 STD5.60
2025-10-27 12:38:48 17 17.60 0.085000 41.649648 41.62752893 0 0 0 0 0 0 0 0 STD5.60
2025-10-27 12:33:46 15 17.60 0.075000 41.649648 41.62752893 0 0 0 0 0 0 0 0 STD5.60
2025-10-27 12:28:43 13 19.60 0.065000 41.649648 41.62752893 0 0 0 0 0 0 0 0 STD5.60
2025-10-27 12:23:41 26 20.80 0.130000 41.649648 41.62752893 0 0 0 0 0 0 0 0 STD5.60
2025-10-27 12:18:40 23 17.80 0.115000 41.649648 41.62752893 0 0 0 0 0 0 0 0 STD5.60
2025-10-27 12:13:36 18 17.50 0.090000 41.649648 41.62752893 0 0 0 0 0 0 0 0 STD5.60
2025-10-27 12:08:34 20 17.60 0.100000 41.649648 41.62752893 0 0 0 0 0 0 0 0 STD5.60
2025-10-27 12:03:32 16 17.30 0.080000 41.649648 41.62752893 0 0 0 0 0 0 0 0 STD5.60
2025-10-27 11:58:30 22 17.10 0.110000 41.649648 41.62752893 0 0 0 0 0 0 0 0 STD5.60
2025-10-27 11:53:28 12 16.40 0.060000 41.649648 41.62752893 0 0 0 0 0 0 0 0 STD5.60
2025-10-27 11:48:26 18 16.60 0.090000 41.649648 41.62752893 0 0 0 0 0 0 0 0 STD5.60
2025-10-27 11:43:24 24 17.00 0.120000 41.649648 41.62752893 0 0 0 0 0 0 0 0 STD5.60
2025-10-27 11:38:23 14 16.70 0.070000 41.649648 41.62752893 0 0 0 0 0 0 0 0 STD5.60
2025-10-27 11:33:21 17 16.60 0.085000 41.649648 41.62752893 0 0 0 0 0 0 0 0 STD5.60
2025-10-27 11:28:19 18 17.80 0.090000 41.649648 41.62752893 0 0 0 0 0 0 0 0 STD5.60
2025-10-27 11:23:17 20 13.30 0.100000 41.649648 41.62752893 0 0 0 0 0 0 0 0 STD5.60
2025-10-27 11:18:15 15 3.90 0.075000 41.649648 41.62752893 0 0 0 0 0 0 0 0 STD5.60
2025-10-27 11:13:11 10 17.20 0.050000 41.649648 41.62752893 0 0 0 0 0 0 0 0 STD5.60
2025-10-27 11:08:10 17 16.70 0.085000 41.649648 41.62752893 0 0 0 0 0 0 0 0 STD5.60
2025-10-27 11:03:07 12 16.70 0.060000 41.649648 41.62752893 0 0 0 0 0 0 0 0 STD5.60
2025-10-27 10:58:06 13 16.00 0.065000 41.649648 41.62752893 0 0 0 0 0 0 0 0 STD5.60
2025-10-27 10:53:03 16 15.70 0.080000 41.649648 41.62752893 0 0 0 0 0 0 0 0 STD5.60
2025-10-27 10:48:02 12 19.00 0.060000 41.649648 41.62752893 0 0 0 0 0 0 0 0 STD5.60
2025-10-27 10:42:59 22 19.70 0.110000 41.649648 41.62752893 0 0 0 0 0 0 0 0 STD5.60
2025-10-27 10:37:57 21 19.20 0.105000 41.649648 41.62752893 0 0 0 0 0 0 0 0 STD5.60
2025-10-27 10:32:55 17 19.20 0.085000 41.649648 41.62752893 0 0 0 0 0 0 0 0 STD5.60
2025-10-27 10:27:53 18 17.40 0.090000 41.649648 41.62752893 0 0 0 0 0 0 0 0 STD5.60
2025-10-27 10:22:51 17 16.70 0.085000 41.649648 41.62752893 0 0 0 0 0 0 0 0 STD5.60
2025-10-27 10:17:49 8 19.70 0.040000 41.649648 41.62752893 0 0 0 0 0 0 0 0 STD5.60
2025-10-27 10:12:45 21 19.30 0.105000 41.649648 41.62752893 0 0 0 0 0 0 0 0 STD5.60
2025-10-27 10:07:44 14 17.20 0.070000 41.649648 41.62752893 0 0 0 0 0 0 0 0 STD5.60
2025-10-27 10:02:42 20 17.90 0.100000 41.649648 41.62752893 0 0 0 0 0 0 0 0 STD5.60
2025-10-27 09:57:39 13 18.40 0.065000 41.649648 41.62752893 0 0 0 0 0 0 0 0 STD5.60
2025-10-27 09:52:37 10 16.70 0.050000 41.649648 41.62752893 0 0 0 0 0 0 0 0 STD5.60
2025-10-27 09:47:35 14 16.20 0.070000 41.649648 41.62752893 0 0 0 0 0 0 0 0 STD5.60
2025-10-27 09:42:33 15 19.10 0.075000 41.649648 41.62752893 0 0 0 0 0 0 0 0 STD5.60
2025-10-27 09:37:31 21 19.70 0.105000 41.649648 41.62752893 0 0 0 0 0 0 0 0 STD5.60
2025-10-27 09:32:29 17 17.60 0.085000 41.649648 41.62752893 0 0 0 0 0 0 0 0 STD5.60
2025-10-27 09:27:27 10 17.20 0.050000 41.649648 41.62752893 0 0 0 0 0 0 0 0 STD5.60
2025-10-27 09:22:25 26 18.80 0.130000 41.649648 41.62752893 0 0 0 0 0 0 0 0 STD5.60
2025-10-27 09:17:22 14 18.40 0.070000 41.649648 41.62752893 0 0 0 0 0 0 0 0 STD5.60
2025-10-27 09:12:19 27 18.40 0.135000 41.649648 41.62752893 0 0 0 0 0 0 0 0 STD5.60
2025-10-27 09:07:17 14 18.30 0.070000 41.649648 41.62752893 0 0 0 0 0 0 0 0 STD5.60
2025-10-27 09:02:14 23 17.90 0.115000 41.649648 41.62752893 0 0 0 0 0 0 0 0 STD5.60
2025-10-27 08:57:12 21 18.50 0.105000 41.649648 41.62752893 0 0 0 0 0 0 0 0 STD5.60
2025-10-27 08:52:11 22 20.20 0.110000 41.649648 41.62752893 0 0 0 0 0 0 0 0 STD5.60
2025-10-27 08:47:08 17 18.10 0.085000 41.649648 41.62752893 0 0 0 0 0 0 0 0 STD5.60
2025-10-27 08:42:06 8 17.00 0.040000 41.649648 41.62752893 0 0 0 0 0 0 0 0 STD5.60
2025-10-27 08:37:05 18 17.60 0.090000 41.649648 41.62752893 0 0 0 0 0 0 0 0 STD5.60
2025-10-27 08:32:02 16 16.50 0.080000 41.649648 41.62752893 0 0 0 0 0 0 0 0 STD5.60
2025-10-27 08:27:00 16 17.30 0.080000 41.649648 41.62752893 0 0 0 0 0 0 0 0 STD5.60
2025-10-27 08:21:58 20 16.70 0.100000 41.649648 41.62752893 0 0 0 0 0 0 0 0 STD5.60
2025-10-27 08:16:56 21 16.20 0.105000 41.649648 41.62752893 0 0 0 0 0 0 0 0 STD5.60
2025-10-27 08:11:51 16 17.40 0.080000 41.649648 41.62752893 0 0 0 0 0 0 0 0 STD5.60
2025-10-27 08:06:52 18 18.00 0.090000 41.649648 41.62752893 0 0 0 0 0 0 0 0 STD5.60
2025-10-27 08:01:47 17 18.70 0.085000 41.649648 41.62752893 0 0 0 0 0 0 0 0 STD5.60
2025-10-27 07:56:45 20 18.80 0.100000 41.649648 41.62752893 0 0 0 0 0 0 0 0 STD5.60
2025-10-27 07:51:43 20 17.20 0.100000 41.649648 41.62752893 0 0 0 0 0 0 0 0 STD5.60
2025-10-27 07:46:41 18 16.50 0.090000 41.649648 41.62752893 0 0 0 0 0 0 0 0 STD5.60
2025-10-27 07:41:39 14 16.90 0.070000 41.649648 41.62752893 0 0 0 0 0 0 0 0 STD5.60
2025-10-27 07:36:37 15 17.90 0.075000 41.649648 41.62752893 0 0 0 0 0 0 0 0 STD5.60
2025-10-27 07:31:35 23 17.90 0.115000 41.649648 41.62752893 0 0 0 0 0 0 0 0 STD5.60
2025-10-27 07:26:33 21 17.00 0.105000 41.649648 41.62752893 0 0 0 0 0 0 0 0 STD5.60
2025-10-27 07:21:31 12 17.80 0.060000 41.649648 41.62752893 0 0 0 0 0 0 0 0 STD5.60
2025-10-27 07:16:29 22 19.40 0.110000 41.649648 41.62752893 0 0 0 0 0 0 0 0 STD5.60
2025-10-27 07:11:24 24 20.10 0.120000 41.649648 41.62752893 0 0 0 0 0 0 0 0 STD5.60
2025-10-27 07:06:22 25 19.20 0.125000 41.649648 41.62752893 0 0 0 0 0 0 0 0 STD5.60
2025-10-27 07:01:20 18 18.50 0.090000 41.649648 41.62752893 0 0 0 0 0 0 0 0 STD5.60
2025-10-27 06:56:18 13 16.60 0.065000 41.649648 41.62752893 0 0 0 0 0 0 0 0 STD5.60
2025-10-27 06:51:16 15 18.30 0.075000 41.649648 41.62752893 0 0 0 0 0 0 0 0 STD5.60
2025-10-27 06:46:14 20 18.70 0.100000 41.649648 41.62752893 0 0 0 0 0 0 0 0 STD5.60
2025-10-27 06:41:12 11 15.70 0.055000 41.649648 41.62752893 0 0 0 0 0 0 0 0 STD5.60
2025-10-27 06:36:10 15 15.90 0.075000 41.649648 41.62752893 0 0 0 0 0 0 0 0 STD5.60
2025-10-27 06:31:09 15 18.70 0.075000 41.649648 41.62752893 0 0 0 0 0 0 0 0 STD5.60
2025-10-27 06:26:06 22 19.50 0.110000 41.649648 41.62752893 0 0 0 0 0 0 0 0 STD5.60
2025-10-27 06:21:03 14 17.60 0.070000 41.649648 41.62752893 0 0 0 0 0 0 0 0 STD5.60
2025-10-27 06:16:02 19 18.00 0.095000 41.649648 41.62752893 0 0 0 0 0 0 0 0 STD5.60
2025-10-27 06:10:57 16 16.50 0.080000 41.649648 41.62752893 0 0 0 0 0 0 0 0 STD5.60
2025-10-27 06:05:56 10 16.40 0.050000 41.649648 41.62752893 0 0 0 0 0 0 0 0 STD5.60
2025-10-27 06:00:54 16 16.10 0.080000 41.649648 41.62752893 0 0 0 0 0 0 0 0 STD5.60
2025-10-27 05:55:51 14 17.70 0.070000 41.649648 41.62752893 0 0 0 0 0 0 0 0 STD5.60
2025-10-27 05:50:49 28 19.80 0.140000 41.649648 41.62752893 0 0 0 0 0 0 0 0 STD5.60
2025-10-27 05:45:47 21 18.40 0.105000 41.649648 41.62752893 0 0 0 0 0 0 0 0 STD5.60
2025-10-27 05:40:47 16 18.20 0.080000 41.649648 41.62752893 0 0 0 0 0 0 0 0 STD5.60
2025-10-27 05:35:44 15 19.30 0.075000 41.649648 41.62752893 0 0 0 0 0 0 0 0 STD5.60
2025-10-27 05:30:43 15 19.40 0.075000 41.649648 41.62752893 0 0 0 0 0 0 0 0 STD5.60
2025-10-27 05:25:40 16 17.70 0.080000 41.649648 41.62752893 0 0 0 0 0 0 0 0 STD5.60
2025-10-27 05:20:38 12 18.00 0.060000 41.649648 41.62752893 0 0 0 0 0 0 0 0 STD5.60
2025-10-27 05:15:36 13 17.80 0.065000 41.649648 41.62752893 0 0 0 0 0 0 0 0 STD5.60
2025-10-27 05:10:32 11 18.00 0.055000 41.649648 41.62752893 0 0 0 0 0 0 0 0 STD5.60
2025-10-27 05:05:30 18 19.20 0.090000 41.649648 41.62752893 0 0 0 0 0 0 0 0 STD5.60
2025-10-27 05:00:28 25 18.80 0.125000 41.649648 41.62752893 0 0 0 0 0 0 0 0 STD5.60
2025-10-27 04:55:26 16 17.90 0.080000 41.649648 41.62752893 0 0 0 0 0 0 0 0 STD5.60
2025-10-27 04:50:24 17 16.10 0.085000 41.649648 41.62752893 0 0 0 0 0 0 0 0 STD5.60
2025-10-27 04:45:21 15 17.50 0.075000 41.649648 41.62752893 0 0 0 0 0 0 0 0 STD5.60
2025-10-27 04:40:19 22 19.50 0.110000 41.649648 41.62752893 0 0 0 0 0 0 0 0 STD5.60
2025-10-27 04:35:17 19 18.30 0.095000 41.649648 41.62752893 0 0 0 0 0 0 0 0 STD5.60
2025-10-27 04:30:16 15 16.40 0.075000 41.649648 41.62752893 0 0 0 0 0 0 0 0 STD5.60
2025-10-27 04:25:13 14 18.70 0.070000 41.649648 41.62752893 0 0 0 0 0 0 0 0 STD5.60
2025-10-27 04:20:12 16 19.30 0.080000 41.649648 41.62752893 0 0 0 0 0 0 0 0 STD5.60
2025-10-27 04:15:10 16 18.20 0.080000 41.649648 41.62752893 0 0 0 0 0 0 0 0 STD5.60
2025-10-27 04:10:06 18 20.20 0.090000 41.649648 41.62752893 0 0 0 0 0 0 0 0 STD5.60
2025-10-27 04:05:04 20 18.50 0.100000 41.649648 41.62752893 0 0 0 0 0 0 0 0 STD5.60
2025-10-27 04:00:03 21 18.40 0.105000 41.649648 41.62752893 0 0 0 0 0 0 0 0 STD5.60
2025-10-27 03:55:00 26 19.70 0.130000 41.649648 41.62752893 0 0 0 0 0 0 0 0 STD5.60
2025-10-27 03:49:58 20 17.40 0.100000 41.649648 41.62752893 0 0 0 0 0 0 0 0 STD5.60
2025-10-27 03:44:56 24 14.80 0.120000 41.649648 41.62752893 0 0 0 0 0 0 0 0 STD5.60
2025-10-27 03:39:54 14 15.30 0.070000 41.649648 41.62752893 0 0 0 0 0 0 0 0 STD5.60
2025-10-27 03:34:52 16 16.50 0.080000 41.649648 41.62752893 0 0 0 0 0 0 0 0 STD5.60
2025-10-27 03:29:49 17 16.80 0.085000 41.649648 41.62752893 0 0 0 0 0 0 0 0 STD5.60
2025-10-27 03:24:48 11 17.30 0.055000 41.649648 41.62752893 0 0 0 0 0 0 0 0 STD5.60
2025-10-27 03:19:46 12 16.70 0.060000 41.649648 41.62752893 0 0 0 0 0 0 0 0 STD5.60
2025-10-27 03:14:44 15 16.90 0.075000 41.649648 41.62752893 0 0 0 0 0 0 0 0 STD5.60
2025-10-27 03:09:39 20 16.90 0.100000 41.649648 41.62752893 0 0 0 0 0 0 0 0 STD5.60
2025-10-27 03:04:37 15 17.40 0.075000 41.649648 41.62752893 0 0 0 0 0 0 0 0 STD5.60
2025-10-27 02:59:35 15 18.20 0.075000 41.649648 41.62752893 0 0 0 0 0 0 0 0 STD5.60
2025-10-27 02:54:34 10 17.20 0.050000 41.649648 41.62752893 0 0 0 0 0 0 0 0 STD5.60
2025-10-27 02:49:31 11 17.10 0.055000 41.649648 41.62752893 0 0 0 0 0 0 0 0 STD5.60
2025-10-27 02:44:29 17 19.00 0.085000 41.649648 41.62752893 0 0 0 0 0 0 0 0 STD5.60
2025-10-27 02:39:27 24 20.30 0.120000 41.649648 41.62752893 0 0 0 0 0 0 0 0 STD5.60
2025-10-27 02:34:25 28 17.00 0.140000 41.649648 41.62752893 0 0 0 0 0 0 0 0 STD5.60
2025-10-27 02:29:22 25 15.30 0.125000 41.649648 41.62752893 0 0 0 0 0 0 0 0 STD5.60
2025-10-27 02:24:20 15 18.20 0.075000 41.649648 41.62752893 0 0 0 0 0 0 0 0 STD5.60
2025-10-27 02:19:19 19 17.90 0.095000 41.649648 41.62752893 0 0 0 0 0 0 0 0 STD5.60
2025-10-27 02:14:17 11 16.50 0.055000 41.649648 41.62752893 0 0 0 0 0 0 0 0 STD5.60
2025-10-27 02:09:12 16 18.10 0.080000 41.649648 41.62752893 0 0 0 0 0 0 0 0 STD5.60
2025-10-27 02:04:11 19 17.90 0.095000 41.649648 41.62752893 0 0 0 0 0 0 0 0 STD5.60
2025-10-27 01:59:08 21 18.10 0.105000 41.649648 41.62752893 0 0 0 0 0 0 0 0 STD5.60
2025-10-27 01:54:07 18 20.60 0.090000 41.649648 41.62752893 0 0 0 0 0 0 0 0 STD5.60
2025-10-27 01:49:04 19 19.80 0.095000 41.649648 41.62752893 0 0 0 0 0 0 0 0 STD5.60
2025-10-27 01:44:03 17 17.80 0.085000 41.649648 41.62752893 0 0 0 0 0 0 0 0 STD5.60
2025-10-27 01:39:00 19 17.00 0.095000 41.649648 41.62752893 0 0 0 0 0 0 0 0 STD5.60
2025-10-27 01:33:58 19 19.20 0.095000 41.649648 41.62752893 0 0 0 0 0 0 0 0 STD5.60
2025-10-27 01:28:56 20 20.20 0.100000 41.649648 41.62752893 0 0 0 0 0 0 0 0 STD5.60
2025-10-27 01:23:54 17 17.30 0.085000 41.649648 41.62752893 0 0 0 0 0 0 0 0 STD5.60
2025-10-27 01:18:51 21 16.80 0.105000 41.649648 41.62752893 0 0 0 0 0 0 0 0 STD5.60
2025-10-27 01:13:49 21 17.50 0.105000 41.649648 41.62752893 0 0 0 0 0 0 0 0 STD5.60
2025-10-27 01:08:44 18 18.10 0.090000 41.649648 41.62752893 0 0 0 0 0 0 0 0 STD5.60
2025-10-27 01:03:43 17 20.70 0.085000 41.649648 41.62752893 0 0 0 0 0 0 0 0 STD5.60
2025-10-27 00:58:40 24 21.40 0.120000 41.649648 41.62752893 0 0 0 0 0 0 0 0 STD5.60
2025-10-27 00:53:39 26 17.80 0.130000 41.649648 41.62752893 0 0 0 0 0 0 0 0 STD5.60
2025-10-27 00:48:36 26 17.20 0.130000 41.649648 41.62752893 0 0 0 0 0 0 0 0 STD5.60
2025-10-27 00:43:34 18 17.90 0.090000 41.649648 41.62752893 0 0 0 0 0 0 0 0 STD5.60
2025-10-27 00:38:32 20 17.30 0.100000 41.649648 41.62752893 0 0 0 0 0 0 0 0 STD5.60
2025-10-27 00:33:30 17 15.60 0.085000 41.649648 41.62752893 0 0 0 0 0 0 0 0 STD5.60
2025-10-27 00:28:28 16 15.60 0.080000 41.649648 41.62752893 0 0 0 0 0 0 0 0 STD5.60
2025-10-27 00:23:26 18 18.90 0.090000 41.649648 41.62752893 0 0 0 0 0 0 0 0 STD5.60
2025-10-27 00:18:24 15 16.80 0.075000 41.649648 41.62752893 0 0 0 0 0 0 0 0 STD5.60
2025-10-27 00:13:22 13 15.20 0.065000 41.649648 41.62752893 0 0 0 0 0 0 0 0 STD5.60
2025-10-27 00:08:18 15 18.60 0.075000 41.649648 41.62752893 0 0 0 0 0 0 0 0 STD5.60
2025-10-27 00:03:16 21 18.60 0.105000 41.649648 41.62752893 0 0 0 0 0 0 0 0 STD5.60
2025-10-26 23:58:14 14 18.10 0.070000 41.649648 41.62752893 0 0 0 0 0 0 0 0 STD5.60
2025-10-26 23:53:12 17 17.40 0.085000 41.649648 41.62752893 0 0 0 0 0 0 0 0 STD5.60
2025-10-26 23:48:10 12 17.10 0.060000 41.649648 41.62752893 0 0 0 0 0 0 0 0 STD5.60
2025-10-26 23:43:08 22 18.40 0.110000 41.649648 41.62752893 0 0 0 0 0 0 0 0 STD5.60
2025-10-26 23:38:06 21 18.20 0.105000 41.649648 41.62752893 0 0 0 0 0 0 0 0 STD5.60
2025-10-26 23:33:04 22 16.40 0.110000 41.649648 41.62752893 0 0 0 0 0 0 0 0 STD5.60
2025-10-26 23:28:02 21 16.60 0.105000 41.649648 41.62752893 0 0 0 0 0 0 0 0 STD5.60
2025-10-26 23:23:00 17 16.90 0.085000 41.649648 41.62752893 0 0 0 0 0 0 0 0 STD5.60
2025-10-26 23:17:58 16 18.20 0.080000 41.649648 41.62752893 0 0 0 0 0 0 0 0 STD5.60
2025-10-26 23:12:56 26 18.20 0.130000 41.649648 41.62752893 0 0 0 0 0 0 0 0 STD5.60
2025-10-26 23:07:52 17 16.90 0.085000 41.649648 41.62752893 0 0 0 0 0 0 0 0 STD5.60
2025-10-26 23:02:50 14 17.10 0.070000 41.649648 41.62752893 0 0 0 0 0 0 0 0 STD5.60
2025-10-26 22:57:47 17 17.40 0.085000 41.649648 41.62752893 0 0 0 0 0 0 0 0 STD5.60
2025-10-26 22:52:45 17 19.30 0.085000 41.649648 41.62752893 0 0 0 0 0 0 0 0 STD5.60
2025-10-26 22:47:43 17 19.30 0.085000 41.649648 41.62752893 0 0 0 0 0 0 0 0 STD5.60
2025-10-26 22:42:41 16 19.80 0.080000 41.649648 41.62752893 0 0 0 0 0 0 0 0 STD5.60
2025-10-26 22:37:39 23 19.10 0.115000 41.649648 41.62752893 0 0 0 0 0 0 0 0 STD5.60
2025-10-26 22:32:37 14 17.10 0.070000 41.649648 41.62752893 0 0 0 0 0 0 0 0 STD5.60
2025-10-26 22:27:35 16 17.10 0.080000 41.649648 41.62752893 0 0 0 0 0 0 0 0 STD5.60
2025-10-26 22:22:33 9 16.80 0.045000 41.649648 41.62752893 0 0 0 0 0 0 0 0 STD5.60
2025-10-26 22:17:31 17 18.00 0.085000 41.649648 41.62752893 0 0 0 0 0 0 0 0 STD5.60
2025-10-26 22:12:29 17 17.30 0.085000 41.649648 41.62752893 0 0 0 0 0 0 0 0 STD5.60
2025-10-26 22:07:25 14 15.60 0.070000 41.649648 41.62752893 0 0 0 0 0 0 0 0 STD5.60
2025-10-26 22:02:23 18 18.00 0.090000 41.649648 41.62752893 0 0 0 0 0 0 0 0 STD5.60
2025-10-26 21:57:21 21 18.90 0.105000 41.649648 41.62752893 0 0 0 0 0 0 0 0 STD5.60
2025-10-26 21:52:19 23 18.20 0.115000 41.649648 41.62752893 0 0 0 0 0 0 0 0 STD5.60
2025-10-26 21:47:17 21 18.20 0.105000 41.649648 41.62752893 0 0 0 0 0 0 0 0 STD5.60
2025-10-26 21:42:15 22 18.20 0.110000 41.649648 41.62752893 0 0 0 0 0 0 0 0 STD5.60
2025-10-26 21:37:13 19 20.80 0.095000 41.649648 41.62752893 0 0 0 0 0 0 0 0 STD5.60
2025-10-26 21:32:11 15 20.00 0.075000 41.649648 41.62752893 0 0 0 0 0 0 0 0 STD5.60
2025-10-26 21:27:09 12 18.20 0.060000 41.649648 41.62752893 0 0 0 0 0 0 0 0 STD5.60
2025-10-26 21:22:07 16 17.40 0.080000 41.649648 41.62752893 0 0 0 0 0 0 0 0 STD5.60
2025-10-26 21:17:05 21 17.00 0.105000 41.649648 41.62752893 0 0 0 0 0 0 0 0 STD5.60
2025-10-26 21:12:03 16 18.20 0.080000 41.649648 41.62752893 0 0 0 0 0 0 0 0 STD5.60
2025-10-26 21:06:59 19 18.40 0.095000 41.649648 41.62752893 0 0 0 0 0 0 0 0 STD5.60
2025-10-26 21:01:57 21 18.60 0.105000 41.649648 41.62752893 0 0 0 0 0 0 0 0 STD5.60
2025-10-26 20:56:55 19 16.90 0.095000 41.649648 41.62752893 0 0 0 0 0 0 0 0 STD5.60
2025-10-26 20:51:53 16 16.60 0.080000 41.649648 41.62752893 0 0 0 0 0 0 0 0 STD5.60
2025-10-26 20:46:51 20 16.00 0.100000 41.649648 41.62752893 0 0 0 0 0 0 0 0 STD5.60
2025-10-26 20:41:49 23 13.90 0.115000 41.649648 41.62752893 0 0 0 0 0 0 0 0 STD5.60
2025-10-26 20:36:47 16 15.70 0.080000 41.649648 41.62752893 0 0 0 0 0 0 0 0 STD5.60
2025-10-26 20:31:45 19 17.40 0.095000 41.649648 41.62752893 0 0 0 0 0 0 0 0 STD5.60
2025-10-26 20:26:43 15 17.00 0.075000 41.649648 41.62752893 0 0 0 0 0 0 0 0 STD5.60
2025-10-26 20:21:40 16 16.40 0.080000 41.649648 41.62752893 0 0 0 0 0 0 0 0 STD5.60
2025-10-26 20:16:38 17 15.80 0.085000 41.649648 41.62752893 0 0 0 0 0 0 0 0 STD5.60
2025-10-26 20:11:34 17 16.30 0.085000 41.649648 41.62752893 0 0 0 0 0 0 0 0 STD5.60
2025-10-26 20:06:32 16 14.90 0.080000 41.649648 41.62752893 0 0 0 0 0 0 0 0 STD5.60
2025-10-26 20:01:30 8 16.80 0.040000 41.649648 41.62752893 0 0 0 0 0 0 0 0 STD5.60
2025-10-26 19:56:28 18 17.70 0.090000 41.649648 41.62752893 0 0 0 0 0 0 0 0 STD5.60
2025-10-26 19:51:26 9 15.50 0.045000 41.649648 41.62752893 0 0 0 0 0 0 0 0 STD5.60
2025-10-26 19:46:24 15 15.60 0.075000 41.649648 41.62752893 0 0 0 0 0 0 0 0 STD5.60
2025-10-26 19:41:22 18 16.90 0.090000 41.649648 41.62752893 0 0 0 0 0 0 0 0 STD5.60
2025-10-26 19:36:20 14 19.40 0.070000 41.649648 41.62752893 0 0 0 0 0 0 0 0 STD5.60
2025-10-26 19:31:18 20 19.10 0.100000 41.649648 41.62752893 0 0 0 0 0 0 0 0 STD5.60
2025-10-26 19:26:15 17 18.00 0.085000 41.649648 41.62752893 0 0 0 0 0 0 0 0 STD5.60
2025-10-26 19:21:13 14 16.30 0.070000 41.649648 41.62752893 0 0 0 0 0 0 0 0 STD5.60
2025-10-26 19:16:11 14 15.90 0.070000 41.649648 41.62752893 0 0 0 0 0 0 0 0 STD5.60
2025-10-26 19:11:06 19 17.30 0.095000 41.649648 41.62752893 0 0 0 0 0 0 0 0 STD5.60
2025-10-26 19:06:04 17 16.50 0.085000 41.649648 41.62752893 0 0 0 0 0 0 0 0 STD5.60
2025-10-26 19:01:02 19 15.40 0.095000 41.649648 41.62752893 0 0 0 0 0 0 0 0 STD5.60
2025-10-26 18:56:00 17 17.40 0.085000 41.649648 41.62752893 0 0 0 0 0 0 0 0 STD5.60
2025-10-26 18:50:58 11 18.50 0.055000 41.649648 41.62752893 0 0 0 0 0 0 0 0 STD5.60
2025-10-26 18:45:56 12 17.30 0.060000 41.649648 41.62752893 0 0 0 0 0 0 0 0 STD5.60
Geiger Counter World Map       A real time radiation map.     Copyright 2015 All rights reserved.